Latest Weather Observations for kunanyi / Mount Wellington

IDT60901

Issued at 2:21 am EST Wednesday 17 July 2019 (issued every 10 minutes, with the page automatically refreshed every 10 minutes)

About weather observations | Map of Hobart area stations | Latest observations for Hobart area | Other Formats
Station Details ID: 094087 Name: KUNANYI (MOUNT WELLINGTON PINNACLE) Lat: -42.90 Lon: 147.24 Height: 1260.47 m
Data from the previous 72 hours. | See also: Recent months at kunanyi / Mount Wellington
Date/Time
EST
Temp
°C
App
Temp
°C
Dew
Point
°C
Rel
Hum
%
Delta-T
°C
Wind Press
QNH
hPa
Press
MSL
hPa
Rain since
9am
mm
Dir  Spd
km/h
Gust
km/h
Spd
kts
Gust
kts
17/02:00am 1.9 -9.7 1.9 100 0.0 W 52 80 28 43 - - 0.0
17/01:42am 2.0 -9.2 2.0 100 0.0 WSW 50 70 27 38 - - 0.0
17/01:30am 2.1 -10.2 2.1 100 0.0 WSW 56 69 30 37 - - 0.0
17/01:00am 2.4 -8.7 2.4 100 0.0 WSW 50 74 27 40 - - 0.0
17/12:30am 2.5 -8.6 2.5 100 0.0 WSW 50 74 27 40 - - 0.0
17/12:00am 2.5 -7.8 2.5 100 0.0 WSW 46 65 25 35 - - 0.0
 
Date/Time
EST
Temp
°C
App
Temp
°C
Dew
Point
°C
Rel
Hum
%
Delta-T
°C
Wind Press
QNH
hPa
Press
MSL
hPa
Rain since
9am
mm
Dir  Spd
km/h
Gust
km/h
Spd
kts
Gust
kts
16/11:30pm 2.4 -7.4 2.4 100 0.0 WSW 43 56 23 30 - - 0.0
16/11:00pm 2.4 -7.6 2.4 100 0.0 WSW 44 57 24 31 - - 0.0
16/10:30pm 2.4 -7.6 2.4 100 0.0 WSW 44 63 24 34 - - 0.0
16/10:00pm 2.4 -7.4 2.4 100 0.0 WSW 43 59 23 32 - - 0.0
16/09:43pm 2.5 -7.4 2.5 100 0.0 WSW 44 63 24 34 - - 0.0
16/09:30pm 2.4 -7.6 2.4 100 0.0 WSW 44 57 24 31 - - 0.0
16/09:25pm 2.3 -8.1 2.3 100 0.0 WSW 46 67 25 36 - - 0.0
16/09:00pm 2.3 -7.7 2.3 100 0.0 WSW 44 57 24 31 - - 0.0
16/08:30pm 2.2 -7.6 2.2 100 0.0 WSW 43 61 23 33 - - 0.0
16/08:14pm 2.0 -8.0 2.0 100 0.0 WSW 44 65 24 35 - - 0.0
16/08:00pm 1.9 -8.1 1.9 100 0.0 WSW 44 59 24 32 - - 0.0
16/07:34pm 1.9 -7.6 1.9 100 0.0 WSW 41 61 22 33 - - 0.0
16/07:30pm 1.8 -6.9 1.8 100 0.0 WSW 37 50 20 27 - - 0.0
16/07:09pm 1.8 -8.3 1.8 100 0.0 WSW 44 67 24 36 - - 0.0
16/07:00pm 1.7 -8.4 1.7 100 0.0 WSW 44 61 24 33 - - 0.0
16/06:36pm 1.7 -6.3 1.7 100 0.0 WSW 33 56 18 30 - - 0.0
16/06:30pm 1.7 -6.7 1.7 100 0.0 WSW 35 46 19 25 - - 0.0
16/06:00pm 1.5 -8.4 1.5 100 0.0 WSW 43 61 23 33 - - 0.0
16/05:44pm 1.5 -8.4 1.5 100 0.0 WSW 43 61 23 33 - - 0.0
16/05:30pm 1.5 -8.6 1.5 100 0.0 WSW 44 59 24 32 - - 0.0
16/05:00pm 1.6 -9.6 1.6 100 0.0 SW 50 65 27 35 - - 0.0
16/04:32pm 1.7 -9.5 1.7 100 0.0 WSW 50 70 27 38 - - 0.0
16/04:30pm 1.7 -9.5 1.7 100 0.0 WSW 50 63 27 34 - - 0.0
16/04:03pm 2.0 -8.5 1.7 98 0.1 WSW 46 65 25 35 - - 0.0
16/04:00pm 1.9 -8.6 1.6 98 0.1 WSW 46 63 25 34 - - 0.0
16/03:49pm 2.0 -10.4 1.6 97 0.2 WSW 56 76 30 41 - - 0.0
16/03:30pm 2.1 -11.3 1.2 94 0.4 WSW 61 76 33 41 - - 0.0
16/03:00pm 2.3 -10.3 1.4 94 0.4 WSW 57 76 31 41 - - 0.0
16/02:39pm 2.5 -9.1 1.9 96 0.3 WSW 52 70 28 38 - - 0.0
16/02:30pm 2.3 -10.2 1.7 96 0.3 WSW 57 69 31 37 - - 0.0
16/02:00pm 2.8 -8.7 2.4 97 0.2 WSW 52 72 28 39 - - 0.0
16/01:30pm 2.5 -7.4 2.5 100 0.0 WSW 44 65 24 35 - - 0.0
16/01:19pm 2.5 -7.8 2.5 100 0.0 W 46 65 25 35 - - 0.0
16/01:11pm 2.5 -9.7 2.5 100 0.0 WSW 56 72 30 39 - - 0.0
16/01:00pm 2.4 -12.3 2.4 100 0.0 WSW 69 91 37 49 - - 0.0
16/12:30pm 2.1 -11.1 2.1 100 0.0 WSW 61 87 33 47 - - 0.0
16/12:00pm 1.9 -13.1 1.9 100 0.0 WSW 70 104 38 56 - - 0.0
16/11:30am 2.1 -11.5 2.1 100 0.0 WSW 63 85 34 46 - - 0.0
16/11:00am 2.0 -14.1 2.0 100 0.0 WSW 76 100 41 54 - - 0.0
16/10:30am 2.0 -13.4 2.0 100 0.0 WSW 72 95 39 51 - - 0.0
16/10:00am 2.0 -12.8 2.0 100 0.0 WSW 69 87 37 47 - - 0.0
16/09:30am 2.0 -13.7 2.0 100 0.0 WSW 74 96 40 52 - - 0.0
16/09:21am 1.9 -13.8 1.9 100 0.0 WSW 74 96 40 52 - - 0.0
16/09:00am 1.8 -13.6 1.8 100 0.0 WSW 72 87 39 47 - - 0.2
16/08:30am 1.7 -13.7 1.7 100 0.0 WSW 72 85 39 46 - - 0.2
16/08:00am 1.7 -12.7 1.7 100 0.0 WSW 67 87 36 47 - - 0.2
16/07:53am 1.7 -12.0 1.7 100 0.0 WSW 63 87 34 47 - - 0.2
16/07:30am 1.7 -11.2 1.7 100 0.0 WSW 59 76 32 41 - - 0.2
16/07:01am 1.8 -12.3 1.8 100 0.0 WSW 65 83 35 45 - - 0.0
16/07:00am 1.8 -12.3 1.8 100 0.0 WSW 65 82 35 44 - - 0.0
16/06:30am 1.8 -12.6 1.8 100 0.0 WSW 67 85 36 46 - - 0.0
16/06:00am 1.8 -11.9 1.8 100 0.0 SW 63 89 34 48 - - 0.0
16/05:30am 1.9 -10.0 1.9 100 0.0 WSW 54 74 29 40 - - 0.0
16/05:01am 2.0 -12.8 2.0 100 0.0 WSW 69 89 37 48 - - 0.0
16/05:00am 2.0 -12.4 2.0 100 0.0 WSW 67 83 36 45 - - 0.0
16/04:30am 2.0 -12.8 2.0 100 0.0 WSW 69 89 37 48 - - 0.0
16/04:00am 2.0 -13.7 2.0 100 0.0 WSW 74 95 40 51 - - 0.0
16/03:43am 2.0 -14.5 2.0 100 0.0 WSW 78 98 42 53 - - 0.0
16/03:30am 2.0 -14.9 2.0 100 0.0 WSW 80 98 43 53 - - 0.0
16/03:03am 1.9 -15.4 1.9 100 0.0 WSW 82 107 44 58 - - 0.0
16/03:00am 2.0 -15.3 2.0 100 0.0 WSW 82 98 44 53 - - 0.0
16/02:30am 1.9 -16.7 1.9 100 0.0 WSW 89 107 48 58 - - 0.0
16/02:00am 2.0 -15.8 2.0 100 0.0 WSW 85 111 46 60 - - 0.0
16/01:30am 2.0 -17.0 2.0 100 0.0 WSW 91 113 49 61 - - 0.0
16/01:00am 1.9 -18.0 1.9 100 0.0 WSW 96 117 52 63 - - 0.0
16/12:30am 1.9 -16.7 1.9 100 0.0 WSW 89 109 48 59 - - 0.0
16/12:00am 1.8 -17.6 1.8 100 0.0 WSW 93 113 50 61 - - 0.0
 
Date/Time
EST
Temp
°C
App
Temp
°C
Dew
Point
°C
Rel
Hum
%
Delta-T
°C
Wind Press
QNH
hPa
Press
MSL
hPa
Rain since
9am
mm
Dir  Spd
km/h
Gust
km/h
Spd
kts
Gust
kts
15/11:33pm 1.9 -16.3 1.9 100 0.0 WSW 87 106 47 57 - - 0.0
15/11:30pm 2.0 -16.6 2.0 100 0.0 WSW 89 106 48 57 - - 0.0
15/11:00pm 2.0 -17.0 2.0 100 0.0 WSW 91 111 49 60 - - 0.0
15/10:30pm 2.1 -17.6 2.1 100 0.0 WSW 95 119 51 64 - - 0.0
15/10:00pm 2.0 -15.8 2.0 100 0.0 WSW 85 109 46 59 - - 0.0
15/09:48pm 1.9 -16.3 1.9 100 0.0 WSW 87 106 47 57 - - 0.0
15/09:30pm 2.0 -16.2 2.0 100 0.0 WSW 87 104 47 56 - - 0.0
15/09:03pm 2.1 -15.1 2.1 100 0.0 WSW 82 104 44 56 - - 0.0
15/09:00pm 2.1 -15.1 2.1 100 0.0 WSW 82 100 44 54 - - 0.0
15/08:30pm 2.1 -16.8 2.1 100 0.0 WSW 91 113 49 61 - - 0.0
15/08:00pm 2.1 -17.8 2.1 100 0.0 WSW 96 120 52 65 - - 0.0
15/07:30pm 2.1 -17.8 2.1 100 0.0 WSW 96 119 52 64 - - 0.0
15/07:00pm 2.1 -15.7 2.1 100 0.0 WSW 85 117 46 63 - - 0.0
15/06:30pm 2.1 -15.3 2.1 100 0.0 WSW 83 106 45 57 - - 0.0
15/06:03pm 2.1 -16.1 2.1 100 0.0 WSW 87 106 47 57 - - 0.0
15/06:00pm 2.1 -16.8 2.1 100 0.0 WSW 91 106 49 57 - - 0.0
15/05:30pm 2.1 -16.8 2.1 100 0.0 WSW 91 117 49 63 - - 0.0
15/05:00pm 1.7 -16.2 1.7 100 0.0 WSW 85 111 46 60 - - 0.0
15/04:30pm 1.6 -16.3 1.6 100 0.0 WSW 85 109 46 59 - - 0.0
15/04:00pm 1.4 -16.9 1.4 100 0.0 WSW 87 109 47 59 - - 0.0
15/03:30pm 1.6 -18.4 1.6 100 0.0 WSW 96 117 52 63 - - 0.0
15/03:00pm 1.8 -18.0 1.8 100 0.0 WSW 95 117 51 63 - - 0.0
15/02:30pm 1.8 -16.8 1.8 100 0.0 WSW 89 109 48 59 - - 0.0
15/02:00pm 0.5 -17.6 0.5 100 0.0 WSW 85 120 46 65 - - 0.0
15/01:41pm 1.4 -17.7 1.4 100 0.0 WSW 91 132 49 71 - - 0.0
15/01:30pm 1.1 -17.6 1.1 100 0.0 WSW 89 113 48 61 - - 0.0
15/01:00pm 0.3 -17.8 0.3 100 0.0 WSW 85 107 46 58 - - 0.0
15/12:30pm 0.0 -16.0 0.0 100 0.0 WSW 74 96 40 52 - - 0.0
15/12:00pm 0.0 -13.6 0.0 100 0.0 WSW 61 85 33 46 - - 0.0
15/11:54am 0.0 -13.2 0.0 100 0.0 WSW 59 78 32 42 - - 0.0
15/11:41am 0.0 -5.8 0.0 100 0.0 WSW 20 61 11 33 - - 0.0
15/11:30am -0.1 -3.8 -0.1 100 0.0 WSW 9 13 5 7 - - 0.0
15/11:00am -0.1 -2.1 -0.2 99 0.0 CALM 0 0 0 0 - - 0.0
15/10:30am -0.6 -2.7 -0.7 99 0.0 CALM 0 0 0 0 - - 0.0
15/10:00am -1.0 -3.1 -1.1 99 0.0 CALM 0 0 0 0 - - 0.0
15/09:30am -1.3 -3.5 -1.4 99 0.0 CALM 0 0 0 0 - - 0.0
15/09:00am -1.3 -3.5 -1.4 99 0.0 CALM 0 0 0 0 - - 0.8
15/08:30am -1.2 -3.4 -1.3 99 0.0 CALM 0 0 0 0 - - 0.6
15/08:00am -1.3 -3.5 -1.4 99 0.0 CALM 0 0 0 0 - - 0.6
15/07:30am -1.4 -3.6 -1.5 99 0.0 CALM 0 0 0 0 - - 0.6
15/07:00am -1.3 -3.5 -1.4 99 0.0 CALM 0 0 0 0 - - 0.6
15/06:30am -1.1 -3.3 -1.2 99 0.0 CALM 0 0 0 0 - - 0.6
15/06:00am -1.0 -3.1 -1.1 99 0.0 CALM 0 0 0 0 - - 0.6
15/05:30am -0.9 -3.0 -1.0 99 0.0 CALM 0 0 0 0 - - 0.6
15/05:00am -1.0 -3.1 -1.1 99 0.0 CALM 0 0 0 0 - - 0.6
15/04:30am -1.0 -3.1 -1.1 99 0.0 CALM 0 0 0 0 - - 0.6
15/04:00am -1.2 -3.4 -1.3 99 0.0 CALM 0 0 0 0 - - 0.6
15/03:30am -1.4 -3.6 -1.7 98 0.0 CALM 0 0 0 0 - - 0.6
15/03:00am -1.5 -3.7 -1.8 98 0.0 CALM 0 2 0 1 - - 0.6
15/02:30am -1.6 -5.6 -1.9 98 0.0 WNW 9 11 5 6 - - 0.6
15/02:00am -1.8 -6.5 -2.1 98 0.0 WNW 13 15 7 8 - - 0.4
15/01:30am -2.1 -7.7 -2.5 97 0.0 WNW 17 20 9 11 - - 0.4
15/01:00am -2.5 -8.1 -2.9 97 0.0 WNW 17 19 9 10 - - 0.4
15/12:30am -2.6 -8.6 -3.0 97 0.0 WNW 19 20 10 11 - - 0.4
15/12:00am -2.7 -8.7 -3.1 97 0.0 WNW 19 20 10 11 - - 0.4
 
Date/Time
EST
Temp
°C
App
Temp
°C
Dew
Point
°C
Rel
Hum
%
Delta-T
°C
Wind Press
QNH
hPa
Press
MSL
hPa
Rain since
9am
mm
Dir  Spd
km/h
Gust
km/h
Spd
kts
Gust
kts
14/11:30pm -2.8 -8.8 -3.2 97 0.0 WNW 19 20 10 11 - - 0.4
14/11:00pm -3.0 -9.2 -3.4 97 0.0 WNW 20 24 11 13 - - 0.4
14/10:30pm -3.0 -9.0 -3.4 97 0.0 WNW 19 22 10 12 - - 0.2
14/10:00pm -3.0 -9.2 -3.4 97 0.0 WNW 20 24 11 13 - - 0.2
14/09:30pm -3.1 -9.7 -3.5 97 0.0 WNW 22 26 12 14 - - 0.2
14/09:00pm -3.2 -9.5 -3.6 97 0.0 WNW 20 24 11 13 - - 0.2
14/08:30pm -3.2 -10.2 -3.6 97 0.0 WNW 24 30 13 16 - - 0.2
14/08:00pm -3.1 -9.3 -3.5 97 0.0 WNW 20 28 11 15 - - 0.2
14/07:30pm -3.1 -9.7 -3.5 97 0.0 WNW 22 26 12 14 - - 0.2
14/07:00pm - - - - - WNW 26 32 14 17 - - 0.2
14/06:30pm - - - - - WNW 24 30 13 16 - - 0.2
14/06:00pm - - - - - WNW 24 28 13 15 - - 0.2
14/05:30pm - - - - - WNW 26 32 14 17 - - 0.2
14/05:00pm - - - - - WNW 30 35 16 19 - - 0.2
14/04:30pm - - - - - WNW 30 35 16 19 - - 0.2
14/04:00pm - - - - - WNW 30 35 16 19 - - 0.2
14/03:30pm - - - - - WNW 28 33 15 18 - - 0.2
14/03:00pm - - - - - WNW 33 39 18 21 - - 0.2
14/02:30pm - - - - - WNW 33 37 18 20 - - 0.2
14/02:00pm - - - - - WNW 30 37 16 20 - - 0.2
14/01:30pm - - - - - WNW 32 37 17 20 - - 0.2
14/01:00pm - - - - - WNW 35 41 19 22 - - 0.2
14/12:30pm -2.5 -11.1 -2.6 99 -0.1 WNW 33 41 18 22 - - 0.2
14/12:00pm -2.3 -11.6 -2.4 99 -0.1 WNW 37 43 20 23 - - 0.2
14/11:30am -1.7 -11.0 -1.8 99 0.0 WNW 37 46 20 25 - - 0.2
14/11:00am -1.4 -9.7 -1.5 99 0.0 WNW 32 37 17 20 - - 0.2
14/10:30am -1.6 -9.5 -1.6 100 0.0 WNW 30 33 16 18 - - 0.2
14/10:00am -1.4 -8.9 -1.4 100 0.0 WNW 28 32 15 17 - - 0.2
14/09:30am -1.4 -7.4 -1.4 100 0.0 WNW 20 26 11 14 - - 0.0
14/09:00am -1.3 -9.2 -1.3 100 0.0 WNW 30 33 16 18 - - 0.8
14/08:30am -0.9 -10.0 -0.9 100 0.0 WNW 37 41 20 22 - - 0.8
14/08:00am -0.8 -8.2 -0.8 100 0.0 WNW 28 35 15 19 - - 0.8
14/07:30am -0.4 -7.8 -0.4 100 0.0 WNW 28 35 15 19 - - 0.6
14/07:00am -0.7 -6.6 -0.7 100 0.0 WNW 20 24 11 13 - - 0.6
14/06:30am -0.4 -6.2 -0.4 100 0.0 WNW 20 28 11 15 - - 0.6
14/06:00am -0.5 -7.5 -0.5 100 0.0 WNW 26 43 14 23 - - 0.6
14/05:30am -0.5 -7.9 -0.6 99 0.0 WNW 28 35 15 19 - - 0.6
14/05:00am -0.7 -8.1 -0.8 99 0.0 WNW 28 35 15 19 - - 0.6
14/04:30am -0.6 -8.0 -0.7 99 0.0 WNW 28 39 15 21 - - 0.6
14/04:00am -0.9 -9.1 -1.0 99 0.0 WNW 32 41 17 22 - - 0.6
14/03:30am -1.3 -8.8 -1.6 98 0.0 WNW 28 35 15 19 - - 0.6
14/03:00am -1.1 -9.0 -1.4 98 0.1 WNW 30 39 16 21 - - 0.6
14/02:30am -1.7 -8.5 -2.1 97 0.1 WNW 24 33 13 18 - - 0.6

Latest Capital City Observations: Canberra | Sydney | Melbourne | Brisbane | Adelaide | Perth | Hobart | Darwin

Other formats

Comma delimited format used in spreadsheet applications
http://www.bom.gov.au/fwo/IDT60901/IDT60901.95979.axf

JavaScript Object Notation format (JSON) in row-major order
http://www.bom.gov.au/fwo/IDT60901/IDT60901.95979.json

Data quality

Most of these data are generated automatically and are frequently updated. Quality checks on data are not normally performed. It is possible for incorrect values to appear. Refer to information at About Latest Weather Observations and please check the disclaimer before using these data.